星链-32811 (STARLINK-32811)

导读

STARLINK-32811是美国于2025年2月18日发射的星链卫星,隶属于SpaceX星链星座计划。星链计划旨在构建全球卫星互联网,为全球偏远地区提供高速网络接入服务,该卫星入轨后将服务于全球通信网络覆盖,进一步拓展星链系统的服务能力与覆盖范围。

Basic Information
目录编号:
63039
目录名称:
STARLINK-32811
国际标识:
2025-034L
轨道中心:
EARTH
卫星名称:
星链-32811
卫星全名:
星链-32811 (STARLINK-32811)
卫星状态:
在轨 (已飞行563 天)
发射日期:
2025-02-18 UTC
国别 :
美国 (US)
星等 :
--
Orbit Information
数据来源 国际轨道数据
星历时间: 2026-09-04T12:21:42+0800
4小时前
查看轨道信息
半长轴: 6840.909km
偏心率: 0.0001368
轨道倾角: 53.158°
近地点辐角 89.238°
升交点赤经 146.292°
平近点角 270.878°
近地点: 461.836km
远地点: 463.708km
周期: 93.849分钟
每日圈数: 15.34377
Detailed Information
固有亮度:
5
最大亮度:
2.5
卫星平台:
Starlink V1.0
覆盖范围:
全球
运营商:
太空探索技术公司
运营商所在国:
美国
制造商(研发单位):
太空探索技术公司
制造商所在国:
美国
使用方式:
暂无
Satellite Introduction
Starlink 计划是 SpaceX 推出的全球卫星互联网项目,通过发射低轨道卫星,为全球尤其是偏远地区提供高速、低延迟的互联网服务。自 2019 年起,Starlink 已部署数千颗卫星,旨在缩小全球数字鸿沟,推动互联网普及。该项目还为军事、航空等行业提供通信支持,带来广泛经济效益。
2D Orbit Map
3D Orbit Map
Orbit Altitude Analysis Chart
Orbit Inclination Analysis Chart
Orbit Comprehensive Analysis Chart
View Comprehensive Chart
Conjunction Data List
Event ID Objects TCA Miss Dist (km) Collision Risk Probability Collision Risk Index (CRI) Action
CDM_260905-074205-900006-303921
2026-09-05T
07:42:42+0000
1.481 km
极远距离
6.14586E-6 低风险 0.51
CDM_260905-060805-900006-303921
2026-09-05T
06:08:54+0000
2.084 km
极远距离
2.291685E-6 低风险 0.42
CDM_260903-045505-804306-303921
2026-09-03T
04:55:06+0000
2.602 km
极远距离
1.464814E-6 低风险 0.38
CDM_260905-091605-900006-303921
2026-09-05T
09:16:29+0000
2.804 km
极远距离
1.309257E-6 低风险 0.37
CDM_260905-135105-285406-303921
2026-09-05T
13:51:24+0000
2.801 km
极远距离
1.280564E-6 低风险 0.37
CDM_260903-070205-407106-303921
2026-09-03T
07:02:08+0000
2.674 km
极远距离
1.238786E-6 低风险 0.37